Year,Month,Day,Hour,Minute,Value (Times are PST for temperature in C)
2014,12,11,12,20,8.80
2014,12,11,12,21,8.80
2014,12,11,12,22,8.80
2014,12,11,12,23,8.80
2014,12,11,12,24,8.90
2014,12,11,12,25,8.90
2014,12,11,12,26,8.90
2014,12,11,12,27,8.90
2014,12,11,12,28,8.90
2014,12,11,12,29,8.90
2014,12,11,12,30,9.00
2014,12,11,12,31,9.00
2014,12,11,12,32,9.00
2014,12,11,12,33,9.00
2014,12,11,12,34,9.10
2014,12,11,12,35,9.10
2014,12,11,12,36,9.10
2014,12,11,12,37,9.10
2014,12,11,12,38,9.20
2014,12,11,12,39,9.20
2014,12,11,12,40,9.20
2014,12,11,12,41,9.20
2014,12,11,12,42,9.20
2014,12,11,12,43,9.20
2014,12,11,12,44,9.20
2014,12,11,12,45,9.20
2014,12,11,12,46,9.20
2014,12,11,12,47,9.20
2014,12,11,12,48,9.20
2014,12,11,12,49,9.20
2014,12,11,12,50,9.20
2014,12,11,12,51,9.20
2014,12,11,12,52,9.20
2014,12,11,12,53,9.20
2014,12,11,12,54,9.20
2014,12,11,12,55,9.20
2014,12,11,12,56,9.30
2014,12,11,12,57,9.30
2014,12,11,12,58,9.30
2014,12,11,12,59,9.30
2014,12,11,13,00,9.30
2014,12,11,13,01,9.30
2014,12,11,13,02,9.30
2014,12,11,13,03,9.20
2014,12,11,13,04,9.20
2014,12,11,13,05,9.20
2014,12,11,13,06,9.20
2014,12,11,13,07,9.20
2014,12,11,13,08,9.20
2014,12,11,13,09,9.20
2014,12,11,13,10,9.20
2014,12,11,13,11,9.30
2014,12,11,13,12,9.20
2014,12,11,13,13,9.30
2014,12,11,13,14,9.30
2014,12,11,13,15,9.30
2014,12,11,13,16,9.40
2014,12,11,13,17,9.40
2014,12,11,13,18,9.40
2014,12,11,13,19,9.50
2014,12,11,13,20,9.50
2014,12,11,13,21,9.50
2014,12,11,13,22,9.60
2014,12,11,13,23,9.60
2014,12,11,13,24,9.70
2014,12,11,13,25,9.70
2014,12,11,13,26,9.70
2014,12,11,13,27,9.70
2014,12,11,13,28,9.70
2014,12,11,13,29,9.70
2014,12,11,13,30,9.80
2014,12,11,13,31,9.80
2014,12,11,13,32,9.80
2014,12,11,13,33,9.80
2014,12,11,13,34,9.80
2014,12,11,13,35,9.90
2014,12,11,13,36,9.90
2014,12,11,13,37,9.90
2014,12,11,13,38,9.90
2014,12,11,13,39,9.80
2014,12,11,13,40,9.80
2014,12,11,13,41,9.80
2014,12,11,13,42,9.80
2014,12,11,13,43,9.80
2014,12,11,13,44,9.80
2014,12,11,13,45,9.80
2014,12,11,13,46,9.80
2014,12,11,13,47,9.90
2014,12,11,13,48,9.90
2014,12,11,13,49,9.90
2014,12,11,13,50,9.90
2014,12,11,13,51,9.90
2014,12,11,13,52,9.90
2014,12,11,13,53,9.90
2014,12,11,13,54,9.90
2014,12,11,13,55,9.90
2014,12,11,13,56,9.90
2014,12,11,13,57,9.80
2014,12,11,13,58,9.80
2014,12,11,13,59,9.80
2014,12,11,14,00,9.80
2014,12,11,14,01,9.80
2014,12,11,14,02,9.80
2014,12,11,14,03,9.80
2014,12,11,14,04,9.80
2014,12,11,14,05,9.80
2014,12,11,14,06,9.80
2014,12,11,14,07,9.70
2014,12,11,14,08,9.70
2014,12,11,14,09,9.70
2014,12,11,14,10,9.70
2014,12,11,14,11,9.70
2014,12,11,14,12,9.70
2014,12,11,14,13,9.70
2014,12,11,14,14,9.70
2014,12,11,14,15,9.70
2014,12,11,14,16,9.70
2014,12,11,14,17,9.70
2014,12,11,14,18,9.70
2014,12,11,14,19,9.70
2014,12,11,14,20,9.70
2014,12,11,14,21,9.70
2014,12,11,14,22,9.70
2014,12,11,14,23,9.70
2014,12,11,14,24,9.70
2014,12,11,14,25,9.70
2014,12,11,14,26,9.70
2014,12,11,14,27,9.70
2014,12,11,14,28,9.70
2014,12,11,14,29,9.60
2014,12,11,14,30,9.60
2014,12,11,14,31,9.60
2014,12,11,14,32,9.60
2014,12,11,14,33,9.60
2014,12,11,14,34,9.60
2014,12,11,14,35,9.60
2014,12,11,14,36,9.60
2014,12,11,14,37,9.60
2014,12,11,14,38,9.60
2014,12,11,14,39,9.60
2014,12,11,14,40,9.60
2014,12,11,14,41,9.60
2014,12,11,14,42,9.60
2014,12,11,14,43,9.60
2014,12,11,14,44,9.60
2014,12,11,14,45,9.60
2014,12,11,14,46,9.60
2014,12,11,14,47,9.60
2014,12,11,14,48,9.60
2014,12,11,14,49,9.60
2014,12,11,14,50,9.60
2014,12,11,14,51,9.60
2014,12,11,14,52,9.70
2014,12,11,14,53,9.70
2014,12,11,14,54,9.70
2014,12,11,14,55,9.70
2014,12,11,14,56,9.70
2014,12,11,14,57,9.70
2014,12,11,14,58,9.70
2014,12,11,14,59,9.70
2014,12,11,15,00,9.70
2014,12,11,15,01,9.70
2014,12,11,15,02,9.70
2014,12,11,15,03,9.70
2014,12,11,15,04,9.70
2014,12,11,15,05,9.70
2014,12,11,15,06,9.70
2014,12,11,15,07,9.70
2014,12,11,15,08,9.70
2014,12,11,15,09,9.70
2014,12,11,15,10,9.70
2014,12,11,15,11,9.70
2014,12,11,15,12,9.70
2014,12,11,15,13,9.70
2014,12,11,15,14,9.70
2014,12,11,15,15,9.70
2014,12,11,15,16,9.70
2014,12,11,15,17,9.70
2014,12,11,15,18,9.70
2014,12,11,15,19,9.70
2014,12,11,15,20,9.70
2014,12,11,15,21,9.70
2014,12,11,15,22,9.70
2014,12,11,15,23,9.70
